Location: Devore Heights
(34.2372°N, 117.4156°W)
Time: 14:53:30
(UTC+00:00)

Tiros 1 despin weight - Visible Passes

Search period start: 13 September 2024 00:00
Search period end: 23 September 2024 00:00
Orbit: 573 x 617 km, 48.2° (Epoch: 13 September)

Date Brightness Start Highest point End Pass type
(mag) Time Alt. Az. Time Alt. Az. Time Alt. Az.
13 Sep ? 11:35:40 51° NNW 11:35:40 51° NNW 11:39:55 10° NE visible
14 Sep ? 11:44:27 32° NW 11:44:41 33° NNW 11:48:48 10° NE visible
15 Sep ? 10:16:35 13° NE 10:16:35 13° NE 10:17:01 10° NE visible
15 Sep ? 11:53:10 22° NW 11:53:57 23° NNW 11:57:37 10° NNE visible
16 Sep ? 10:25:14 14° NE 10:25:14 14° NE 10:25:58 10° NE visible
16 Sep ? 12:01:49 16° NW 12:03:18 18° NNW 12:06:26 10° NNE visible
17 Sep ? 10:33:50 15° NNE 10:33:50 15° NNE 10:34:46 10° NE visible
17 Sep ? 12:10:24 11° NW 12:12:41 15° N 12:15:19 10° NNE visible
18 Sep ? 10:42:23 15° NNE 10:42:23 15° NNE 10:43:29 10° NNE visible
18 Sep ? 12:19:45 10° NNW 12:22:06 14° N 12:24:25 10° NNE visible
19 Sep ? 10:50:54 15° NNE 10:50:54 15° NNE 10:52:12 10° NNE visible
19 Sep ? 12:29:06 10° NNW 12:31:28 14° N 12:33:51 10° NE visible
20 Sep ? 10:59:25 14° N 10:59:25 14° N 11:00:58 10° NNE visible
20 Sep ? 12:38:03 10° NNW 12:40:48 16° N 12:43:32 10° NE visible
21 Sep ? 11:07:55 14° N 11:07:55 14° N 11:09:56 10° NNE visible
21 Sep ? 12:46:47 10° NNW 12:50:02 19° NNE 12:53:18 10° ENE visible
22 Sep ? 11:16:26 14° N 11:16:53 14° N 11:19:13 10° NE visible
22 Sep ? 12:55:24 10° NNW 12:59:10 25° NNE 13:02:56 10° E visible
